EW8073 Weather Reports


time (UTC)temp
C
wind
direction
speed
KPH
gust
KPH
rain 1hr
cm
rain 24hr
cm
rain mn
cm
humidity
%
barometer
mb
20260904093842 17 222 0.0 0.0 0.00 0.00 0.00 55 1013.8
20260904093342 17 222 0.0 0.0 0.00 0.00 0.00 55 1013.8
20260904092843 17 222 0.0 0.0 0.00 0.00 0.00 55 1013.7
20260904092341 18 222 0.0 0.0 0.00 0.00 0.00 54 1013.6
20260904091844 18 222 0.0 0.0 0.00 0.00 0.00 53 1013.6
20260904091342 18 222 0.0 0.0 0.00 0.00 0.00 53 1013.6
20260904090844 18 222 0.0 0.0 0.00 0.00 0.00 53 1013.6
20260904090341 18 222 0.0 0.0 0.00 0.00 0.00 53 1013.4
20260904085843 18 221 0.0 0.0 0.00 0.00 0.00 52 1013.4
20260904085342 18 221 0.0 0.0 0.00 0.00 0.00 51 1013.4
20260904084843 18 221 0.0 0.0 0.00 0.00 0.00 52 1013.4
20260904084342 18 221 0.0 0.0 0.00 0.00 0.00 51 1013.4
20260904083843 18 221 0.0 0.0 0.00 0.00 0.00 51 1013.3
20260904083339 18 221 0.0 0.0 0.00 0.00 0.00 51 1013.3
20260904082333 18 221 0.0 0.0 0.00 0.00 0.00 52 1013.2
20260904081321 18 221 0.0 0.0 0.00 0.00 0.00 52 1013.2
20260904080816 18 221 0.0 0.0 0.00 0.00 0.00 51 1013.2
20260904080311 18 221 0.0 0.0 0.00 0.00 0.00 50 1013.2
20260904075804 18 221 0.0 0.0 0.00 0.00 0.00 50 1013.3
20260904075256 19 221 0.0 0.0 0.00 0.00 0.00 50 1013.4
20260904074750 19 221 0.0 0.0 0.00 0.00 0.00 50 1013.4
20260904074246 19 221 0.0 0.0 0.00 0.00 0.00 49 1013.4
20260904073739 19 221 0.0 0.0 0.00 0.00 0.00 49 1013.4
20260904073233 19 221 0.0 0.0 0.00 0.00 0.00 48 1013.4
20260904072727 19 221 0.0 0.0 0.00 0.00 0.00 48 1013.4
20260904072220 20 221 0.0 0.0 0.00 0.00 0.00 48 1013.4
20260904071715 20 221 0.0 0.0 0.00 0.00 0.00 48 1013.6
20260904071208 20 221 0.0 0.0 0.00 0.00 0.00 47 1013.4
20260904070703 20 221 0.0 0.0 0.00 0.00 0.00 47 1013.4
20260904070203 20 221 0.0 0.0 0.00 0.00 0.00 47 1013.6
20260904065703 20 221 0.0 0.0 0.00 0.00 0.00 46 1013.6
20260904065203 20 221 0.0 0.0 0.00 0.00 0.00 46 1013.7
20260904064703 20 221 0.0 0.0 0.00 0.00 0.00 45 1013.7
20260904064204 20 221 0.0 0.0 0.00 0.00 0.00 44 1013.8
20260904063703 20 221 0.0 0.0 0.00 0.00 0.00 44 1013.7
20260904063201 21 221 0.0 0.0 0.00 0.00 0.00 44 1013.8
20260904061659 21 221 0.0 0.0 0.00 0.00 0.00 43 1013.7
20260904061159 21 221 0.0 0.0 0.00 0.00 0.00 43 1013.7
20260904060658 21 221 0.0 0.0 0.00 0.00 0.00 42 1013.7
20260904060157 21 221 0.0 0.0 0.00 0.00 0.00 42 1013.7
20260904055659 21 221 0.0 0.0 0.00 0.00 0.00 42 1013.7
20260904055155 21 221 0.0 0.0 0.00 0.00 0.00 42 1013.7
20260904053653 21 221 0.0 0.0 0.00 0.00 0.00 43 1013.7
20260904053154 21 220 0.0 0.0 0.00 0.00 0.00 43 1013.6
20260904052654 21 220 0.0 0.0 0.00 0.00 0.00 43 1013.6
20260904052153 21 220 0.0 0.0 0.00 0.00 0.00 42 1013.4
20260904051651 21 220 0.0 0.0 0.00 0.00 0.00 43 1013.6
20260904050652 21 220 0.0 0.0 0.00 0.00 0.00 41 1013.6
20260904050152 21 220 0.0 0.0 0.00 0.00 0.00 41 1013.6
20260904045651 21 220 0.0 0.0 0.00 0.00 0.00 42 1013.6
20260904045152 22 257 0.0 0.0 0.00 0.00 0.00 41 1013.4
20260904044648 22 257 0.0 0.0 0.00 0.00 0.00 41 1013.2
20260904044148 22 257 0.0 0.0 0.00 0.00 0.00 40 1013.2
20260904043647 22 257 0.0 0.0 0.00 0.00 0.00 39 1013.1
20260904043147 22 257 0.0 0.0 0.00 0.00 0.00 39 1013.1
20260904042648 22 257 0.0 0.0 0.00 0.00 0.00 38 1013.0
20260904042148 22 257 0.0 0.0 0.00 0.00 0.00 38 1013.0
20260904041147 23 257 0.0 0.0 0.00 0.00 0.00 36 1012.9
20260904040648 23 257 0.0 0.0 0.00 0.00 0.00 36 1012.7
20260904040147 23 257 0.0 0.0 0.00 0.00 0.00 35 1012.7
20260904035647 23 258 0.0 0.0 0.00 0.00 0.00 34 1012.9
20260904035148 23 299 0.0 0.0 0.00 0.00 0.00 32 1012.7
20260904034647 24 307 0.0 0.0 0.00 0.00 0.00 32 1012.6
20260904034147 24 307 0.0 0.0 0.00 0.00 0.00 31 1012.5
20260904033145 25 307 0.0 0.0 0.00 0.00 0.00 30 1012.3
20260904032645 25 307 0.0 0.0 0.00 0.00 0.00 30 1012.3
20260904032145 25 307 0.0 0.0 0.00 0.00 0.00 30 1012.3
20260904031641 25 37 0.0 0.0 0.00 0.00 0.00 30 1012.3
20260904031143 25 246 0.0 0.0 0.00 0.05 0.00 30 1012.2
20260904030637 25 247 0.0 0.0 0.00 0.05 0.00 29 1012.2
20260904030132 25 114 0.0 0.0 0.00 0.05 0.00 29 1011.9
20260904025626 25 136 0.0 0.0 0.00 0.05 0.00 29 1011.8
20260904025120 25 120 0.0 0.0 0.00 0.05 0.00 30 1011.8
20260904024614 25 119 0.0 0.0 0.00 0.05 0.00 30 1011.8
20260904024108 25 62 0.0 0.0 0.00 0.05 0.00 30 1011.8
20260904023602 25 61 0.0 0.0 0.00 0.05 0.00 30 1011.9
20260904023055 25 61 0.0 0.0 0.00 0.05 0.00 30 1011.8
20260904022550 26 61 0.0 0.0 0.00 0.05 0.00 29 1011.8
20260904022043 26 61 0.0 0.0 0.00 0.05 0.00 29 1011.7
20260904021537 26 61 0.0 0.0 0.00 0.05 0.00 29 1011.7
20260904021031 26 61 0.0 0.0 0.00 0.05 0.00 28 1011.7
20260904020525 27 61 0.0 0.0 0.00 0.05 0.00 27 1011.7
20260904020020 27 57 0.0 0.0 0.00 0.05 0.00 27 1011.6
20260904015514 27 57 0.0 0.0 0.00 0.05 0.00 26 1011.6
20260904013955 28 56 0.0 4.8 0.00 0.05 0.00 25 1011.5
20260904013449 28 55 0.0 6.4 0.00 0.05 0.00 25 1011.5
20260904012943 29 54 1.6 6.4 0.00 0.05 0.00 24 1011.5
20260904012437 29 64 0.0 4.8 0.00 0.05 0.00 24 1011.6
20260904011425 30 338 0.0 1.6 0.00 0.05 0.00 23 1011.6
20260904010921 30 312 0.0 1.6 0.00 0.05 0.00 22 1011.7
20260904005909 30 67 0.0 0.0 0.00 0.05 0.00 22 1011.7
20260904005403 30 57 0.0 0.0 0.00 0.05 0.00 22 1011.7
20260904004350 30 80 0.0 0.0 0.00 0.05 0.00 23 1011.7
20260904003843 31 80 0.0 0.0 0.00 0.05 0.00 23 1011.8
20260904003338 31 81 0.0 0.0 0.00 0.05 0.00 24 1011.8
20260904002832 31 130 0.0 3.2 0.00 0.05 0.00 23 1011.8
20260904002325 31 227 0.0 3.2 0.00 0.05 0.00 22 1011.8
20260904001820 31 46 0.0 1.6 0.00 0.05 0.00 23 1011.7
20260904001315 31 326 0.0 0.0 0.00 0.05 0.00 23 1011.8
20260904000303 31 155 0.0 4.8 0.00 0.05 0.00 22 1011.7
20260903235755 31 74 0.0 0.0 0.00 0.05 0.00 24 1011.8
20260903235249 31 69 0.0 0.0 0.00 0.05 0.00 23 1011.8
20260903234743 32 304 0.0 0.0 0.00 0.05 0.00 22 1011.9
20260903234237 31 58 1.6 6.4 0.00 0.05 0.00 23 1011.9
20260903233731 31 227 1.6 6.4 0.00 0.05 0.00 22 1011.9
20260903233225 32 172 0.0 0.0 0.00 0.05 0.00 24 1011.9
20260903232720 32 273 0.0 0.0 0.00 0.05 0.00 23 1011.9
20260903232215 32 101 0.0 0.0 0.00 0.05 0.00 24 1011.9
20260903231201 32 77 0.0 0.0 0.00 0.05 0.00 24 1011.9
20260903230655 32 151 0.0 0.0 0.00 0.05 0.00 22 1011.9
20260903230150 32 155 0.0 8.0 0.00 0.05 0.00 22 1012.0
20260903225644 33 183 0.0 8.0 0.00 0.05 0.00 22 1012.0
20260903225137 33 149 1.6 9.7 0.00 0.05 0.00 22 1012.0
20260903224126 33 355 0.0 0.0 0.00 0.05 0.00 25 1011.9
20260903223619 32 333 0.0 6.4 0.00 0.05 0.00 24 1012.0
20260903223113 33 210 0.0 6.4 0.00 0.05 0.00 23 1011.9
20260903222607 33 125 1.6 9.7 0.00 0.05 0.00 22 1011.9
20260903222101 33 134 0.0 9.7 0.00 0.05 0.00 20 1012.2
20260903221556 33 128 0.0 0.0 0.00 0.05 0.00 23 1012.0
20260903215551 32 121 0.0 3.2 0.00 0.05 0.00 23 1012.3
20260903215053 32 85 0.0 0.0 0.00 0.05 0.00 23 1012.4
20260903214549 32 169 0.0 0.0 0.00 0.05 0.00 23 1012.5
20260903214047 32 170 0.0 0.0 0.00 0.05 0.00 19 1012.6
20260903213547 32 138 0.0 0.0 0.00 0.05 0.00 22 1012.6
20260903213045 32 137 0.0 0.0 0.00 0.05 0.00 23 1012.7
20260903212544 32 137 0.0 0.0 0.00 0.05 0.00 22 1012.9
20260903212047 32 134 0.0 0.0 0.00 0.05 0.00 26 1012.9
20260903211044 32 292 0.0 0.0 0.00 0.05 0.00 22 1013.0
20260903210540 32 111 0.0 0.0 0.00 0.05 0.00 21 1013.1
20260903210039 32 113 0.0 0.0 0.00 0.05 0.00 24 1013.2
20260903205039 31 105 0.0 0.0 0.00 0.05 0.00 24 1013.2
20260903204538 31 67 0.0 0.0 0.00 0.05 0.00 25 1013.3
20260903203533 31 22 0.0 0.0 0.00 0.05 0.00 22 1013.4
20260903203032 31 78 0.0 0.0 0.00 0.05 0.00 26 1013.7
20260903201532 31 78 0.0 0.0 0.00 0.05 0.00 27 1013.8
20260903201033 31 80 0.0 0.0 0.00 0.05 0.00 28 1013.8
20260903200533 30 80 0.0 0.0 0.00 0.05 0.00 29 1013.8
20260903195532 31 196 0.0 0.0 0.00 0.05 0.00 30 1014.0
20260903195033 30 196 0.0 0.0 0.00 0.05 0.00 26 1014.0
20260903194530 30 231 0.0 1.6 0.00 0.05 0.00 27 1014.1
20260903194029 30 231 0.0 1.6 0.00 0.05 0.00 27 1014.1
20260903193528 30 232 0.0 0.0 0.00 0.05 0.00 30 1014.3
20260903193028 30 232 0.0 0.0 0.00 0.05 0.00 23 1014.4
20260903192528 30 229 0.0 0.0 0.00 0.05 0.00 26 1014.4
20260903192029 30 229 0.0 0.0 0.00 0.05 0.00 27 1014.5
20260903191530 29 253 0.0 0.0 0.00 0.05 0.00 26 1014.5
20260903191029 29 177 0.0 0.0 0.00 0.05 0.00 29 1014.5
20260903190529 29 165 0.0 0.0 0.00 0.05 0.00 28 1014.6
20260903190026 29 245 0.0 0.0 0.00 0.05 0.00 28 1014.6
20260903185524 29 105 0.0 0.0 0.00 0.05 0.00 28 1014.7
20260903185025 28 106 0.0 0.0 0.00 0.05 0.00 29 1014.7
20260903184526 28 106 0.0 3.2 0.00 0.05 0.00 29 1014.8
20260903184025 28 106 0.0 8.0 0.00 0.05 0.00 28 1015.0
20260903183028 28 84 0.0 1.6 0.00 0.05 0.00 31 1015.1
20260903182527 28 84 0.0 0.0 0.00 0.05 0.00 28 1015.2
20260903182028 28 84 0.0 0.0 0.00 0.05 0.00 32 1015.3
20260903181519 28 84 0.0 0.0 0.00 0.05 0.00 31 1015.4
20260903181015 28 84 0.0 0.0 0.00 0.05 0.00 32 1015.4
20260903180002 27 86 0.0 4.8 0.00 0.05 0.00 33 1015.5
20260903175458 27 281 0.0 4.8 0.00 0.05 0.00 32 1015.5
20260903174950 27 281 0.0 4.8 0.00 0.05 0.00 32 1015.7
20260903174445 27 280 0.0 4.8 0.00 0.05 0.00 32 1015.7
20260903173938 27 226 0.0 0.0 0.00 0.05 0.00 33 1015.8
20260903173433 27 226 0.0 0.0 0.00 0.05 0.00 31 1015.9
20260903172926 26 226 0.0 0.0 0.00 0.05 0.00 32 1015.9
20260903171410 26 225 0.0 1.6 0.00 0.05 0.00 37 1015.9
20260903170903 26 225 0.0 0.0 0.00 0.05 0.00 38 1015.9
20260903170357 26 242 0.0 0.0 0.00 0.05 0.00 38 1015.9
20260903165345 25 242 0.0 1.6 0.00 0.05 0.00 36 1016.0
20260903164838 25 242 0.0 1.6 0.00 0.05 0.00 39 1016.0
20260903164332 25 242 0.0 0.0 0.00 0.05 0.00 40 1016.0
20260903163826 25 242 0.0 0.0 0.00 0.05 0.00 39 1016.0
20260903163322 25 242 0.0 0.0 0.00 0.05 0.00 42 1016.0
20260903162814 24 242 0.0 0.0 0.00 0.05 0.00 41 1016.1
20260903162307 24 241 0.0 1.6 0.00 0.05 0.00 44 1016.0
20260903161800 24 242 0.0 1.6 0.00 0.05 0.00 43 1016.0
20260903161255 23 242 0.0 0.0 0.00 0.05 0.00 46 1016.0
20260903160749 23 242 0.0 0.0 0.00 0.05 0.00 46 1016.0
20260903160242 23 242 0.0 0.0 0.00 0.05 0.00 48 1016.0
20260903155737 22 242 0.0 1.6 0.00 0.05 0.00 49 1016.0
20260903155230 22 242 0.0 1.6 0.00 0.05 0.00 50 1016.0
20260903154726 22 242 0.0 0.0 0.00 0.05 0.00 50 1015.9
20260903154219 22 242 0.0 1.6 0.00 0.05 0.00 51 1016.0
20260903153712 21 242 0.0 1.6 0.00 0.05 0.00 52 1016.0
20260903153206 21 242 0.0 0.0 0.00 0.05 0.00 52 1016.0
20260903152701 21 242 0.0 0.0 0.00 0.05 0.00 52 1016.1
20260903152154 21 242 0.0 0.0 0.00 0.05 0.00 55 1016.0
20260903151144 20 239 0.0 0.0 0.00 0.05 0.00 58 1016.1
20260903150638 20 230 0.0 0.0 0.00 0.05 0.00 60 1016.1
20260903150130 20 229 0.0 6.4 0.00 0.05 0.00 62 1016.2
20260903145625 19 226 0.0 6.4 0.00 0.05 0.00 63 1016.2
20260903145118 19 248 0.0 0.0 0.00 0.05 0.00 65 1016.2
20260903144612 18 248 0.0 0.0 0.00 0.05 0.00 65 1016.4
20260903144107 18 248 0.0 0.0 0.00 0.05 0.00 67 1016.4
20260903143602 18 248 0.0 0.0 0.00 0.05 0.00 68 1016.5
20260903143054 17 248 0.0 0.0 0.00 0.05 0.00 68 1016.4
20260903142548 17 252 0.0 0.0 0.00 0.05 0.00 70 1016.5
20260903142042 17 250 0.0 0.0 0.00 0.05 0.00 72 1016.5
20260903141537 16 251 0.0 0.0 0.00 0.05 0.00 73 1016.5
20260903141031 16 248 0.0 3.2 0.00 0.05 0.00 74 1016.4
20260903140018 15 261 0.0 3.2 0.00 0.05 0.00 76 1016.2
20260903135513 15 262 0.0 1.6 0.00 0.05 0.00 77 1016.2
20260903135007 15 261 0.0 0.0 0.00 0.05 0.00 78 1016.2
20260903134502 15 263 0.0 0.0 0.00 0.05 0.00 78 1016.2
20260903133954 15 263 0.0 0.0 0.00 0.05 0.00 78 1016.2
20260903133449 14 263 0.0 0.0 0.00 0.05 0.00 78 1016.1
20260903132942 14 263 0.0 0.0 0.00 0.05 0.00 78 1016.0
20260903132437 14 263 0.0 0.0 0.00 0.05 0.00 78 1015.9
20260903131931 14 263 0.0 0.0 0.00 0.05 0.00 78 1015.9
20260903131424 14 263 0.0 0.0 0.00 0.05 0.00 78 1015.9
20260903130918 14 263 0.0 0.0 0.00 0.05 0.00 78 1015.9
20260903125906 14 263 0.0 0.0 0.00 0.05 0.00 78 1015.7
20260903125400 14 263 0.0 0.0 0.00 0.05 0.00 78 1015.8
20260903124348 14 263 0.0 0.0 0.00 0.05 0.00 78 1015.5
20260903123843 14 263 0.0 0.0 0.00 0.05 0.00 78 1015.4
20260903123336 14 263 0.0 0.0 0.00 0.05 0.00 78 1015.5
20260903122831 14 263 0.0 1.6 0.00 0.05 0.00 79 1015.2
20260903122326 14 263 0.0 1.6 0.00 0.05 0.00 79 1015.2
20260903121313 14 263 0.0 0.0 0.00 0.05 0.00 79 1015.2
20260903120806 14 263 0.0 0.0 0.00 0.05 0.00 79 1015.2
20260903120301 14 263 0.0 0.0 0.00 0.05 0.00 79 1015.1
20260903115755 14 263 0.0 0.0 0.00 0.05 0.00 79 1015.2
20260903115248 14 263 0.0 0.0 0.00 0.05 0.00 79 1015.2
20260903114742 14 263 0.0 0.0 0.00 0.05 0.00 79 1015.1
20260903114236 14 263 0.0 0.0 0.00 0.05 0.00 79 1015.1
20260903113224 14 263 0.0 1.6 0.00 0.05 0.00 79 1015.1
20260903112723 15 263 0.0 1.6 0.00 0.05 0.00 79 1015.1
20260903112219 15 263 0.0 0.0 0.00 0.05 0.00 79 1015.1
20260903111721 15 263 0.0 0.0 0.00 0.05 0.00 79 1015.0
20260903110713 15 263 0.0 0.0 0.00 0.05 0.00 78 1015.0
20260903105710 15 263 0.0 0.0 0.00 0.05 0.00 78 1014.8
20260903105207 15 263 0.0 0.0 0.00 0.05 0.00 78 1014.7
20260903104208 15 263 0.0 0.0 0.00 0.05 0.00 78 1014.7
20260903103208 15 263 0.0 0.0 0.00 0.05 0.00 78 1014.8
20260903102709 15 263 0.0 0.0 0.00 0.05 0.00 78 1014.8
20260903102207 15 263 0.0 0.0 0.00 0.05 0.00 78 1014.8
20260903101709 15 263 0.0 0.0 0.00 0.05 0.00 78 1015.0
20260903101208 15 263 0.0 0.0 0.00 0.05 0.00 77 1015.1
20260903100707 15 263 0.0 0.0 0.00 0.05 0.00 77 1015.1
20260903100208 15 263 0.0 0.0 0.00 0.05 0.00 77 1015.1
20260903095207 16 263 0.0 0.0 0.00 0.05 0.00 77 1015.1